Location: Newark
(42.8481°N, 0.4872°E)
Time: 12:08:20
(UTC+00:00)

A-11 Canister half - Pass Details

Date: 01 November 2020
Orbit: 1525 x 1684 km, 47.3° (Epoch: 01 December)

Event Time Altitude Azimuth Distance (km) Brightness Sun altitude
Rises 14:50:09 0° 257° (WSW) 4,797 12.7 18.1°
Reaches altitude 10° 14:53:18 10° 260° (W) 3,791 12.3 17.6°
Maximum altitude 15:02:54 75° 345° (NNW) 1,600 9.3 16.3°
Drops below altitude 10° 15:12:16 10° 72° (ENE) 3,701 10.5 14.9°
Sets 15:15:18 0° 74° (ENE) 4,679 11.0 14.5°
